Terminal Aerodrome Forecast
Issued by NWS Sterling, VA

Home | Current Version | Previous Version | Text Only | Print | Product List | Glossary On
Versions: 1 2 3 4 5 6 7 8 9 10 11 12 13 14 15 16 17 18 19 20 21 22
000
FTUS41 KLWX 020800 AAA
TAFIAD
TAF AMD
KIAD 020859Z 0209/0312 03004KT P6SM SCT015 OVC045
     FM021000 04005KT P6SM SCT008 BKN015
     FM021500 05006KT P6SM SCT015 OVC025
     FM021900 09005KT P6SM SCT020 OVC050
     FM022300 00000KT P6SM SCT020 OVC050
     FM030600 00000KT P6SM BKN015 OVC100=

USA.gov is the U.S. government's official web portal to all federal, state and local government web resources and services.